Cuernavaca, Mexico

3:48 AM CST on March 30, 2017 (GMT -0600)
Cuernavaca

Weather History for MMCB - October, 2012

Change the Weather History Date:

Tuesday, October 30, 2012

  Actual Average Record
Temperature  
Mean Temperature 68 °F -  
Max Temperature 77 °F 80 °F 91 °F (2010)
Min Temperature 58 °F 58 °F 50 °F (2001)
Cooling Degree Days 2    
Growing Degree Days 18 (Base 50)    
Moisture  
Dew Point 57 °F    
Average Humidity 72    
Maximum Humidity 100    
Minimum Humidity 37    
Precipitation  
Precipitation 0.00 in - - ()
Sea Level Pressure  
Sea Level Pressure 30.11 in    
Wind  
Wind Speed 2 mph ()    
Max Wind Speed 7 mph    
Max Gust Speed -    
Visibility 6.9 miles    
Events Fog , Rain    
Averages and records for this station are not official NWS values.
T = Trace of Precipitation, MM = Missing Value Source: Averaged Metar Reports

Daily Weather History Graph

Daily Weather History Graph

Search for Another Location

Airport or City:

Trip Planner

Search our weather history database for the weather conditions in past years. The results will help you decide how hot, cold, wet, or windy it might be!

Date:

Astronomy

Oct. 30, 2012 Rise Set
Actual Time 6:36 AM CST 6:04 PM CST
Civil Twilight 6:14 AM CST 6:26 PM CST
Nautical Twilight 5:48 AM CST 6:52 PM CST
Astronomical Twilight 5:22 AM CST 7:18 PM CST
Moon 6:46 PM CST 7:14 AM CST
Length of Visible Light 12h 12m
Length of Day
11h 27m
Full, 99% of the Moon is Illuminated
Oct 30
Full
Nov 6
Last Quarter
Nov 13
New
Nov 20
First Quarter
Nov 28
Full

Hourly Weather History & Observations

Time (CST) Temp. Dew Point Humidity Pressure Visibility Wind Dir Wind Speed Gust Speed Precip Events Conditions
2:45 AM 60 °F 52 °F 67% 29.99 in 11 mi West 2.2 mph - -   Partly Cloudy
6:00 AM 60 °F 53 °F 71% 29.97 in 11 mi North 2.2 mph - -  
6:57 AM 59.0 °F 59.0 °F 100% 30.16 in 3.0 mi Calm Calm - N/A   Mostly Cloudy
7:10 AM 59.0 °F 57.2 °F 94% 30.17 in 1.0 mi Calm Calm - N/A   Mostly Cloudy
7:47 AM 59.0 °F 59.0 °F 100% 30.19 in 0.2 mi Calm Calm - N/A Fog Fog
8:21 AM 60.8 °F 59.0 °F 94% 30.19 in 2.0 mi Calm Calm - N/A   Mostly Cloudy
8:50 AM 64 °F 55 °F 65% 29.99 in 12 mi North 2.2 mph - -   Partly Cloudy
8:50 AM 66.2 °F 60.8 °F 83% 30.20 in 3.0 mi WNW 3.5 mph - N/A   Mostly Cloudy
9:40 AM 68.0 °F 59.0 °F 73% 30.22 in 7.0 mi Calm Calm - N/A   Mostly Cloudy
10:45 AM 69.8 °F 55.4 °F 60% 30.22 in 7.0 mi SSE 3.5 mph - N/A   Mostly Cloudy
11:41 AM 73.4 °F 53.6 °F 50% 30.20 in 7.0 mi Calm Calm - N/A   Scattered Clouds
11:50 AM 74 °F 53 °F 37% 29.94 in 12 mi WSW 2.2 mph - -   Mostly Cloudy
12:45 PM 77.0 °F 53.6 °F 44% 30.16 in 7.0 mi Calm Calm - N/A   Mostly Cloudy
1:53 PM 73.4 °F 57.2 °F 57% 30.13 in 8.0 mi SW 6.9 mph - N/A   Overcast
2:51 PM 71.6 °F 57.2 °F 60% 30.12 in 8.0 mi West 4.6 mph - N/A   Overcast
3:41 PM 64.4 °F 59.0 °F 83% 30.10 in 6.0 mi West 6.9 mph - N/A Rain Light Rain
4:40 PM 64.4 °F 59.0 °F 83% 30.11 in 7.0 mi Calm Calm - N/A   Overcast
5:59 PM 66.2 °F 59.0 °F 78% 30.14 in 7.0 mi NNW 5.8 mph - N/A   Mostly Cloudy
6:00 PM 64 °F 54 °F 61% 29.81 in 12 mi North 2.2 mph - -   Overcast
6:45 PM 66.2 °F 59.0 °F 78% 30.13 in 7.0 mi NNW 5.8 mph - N/A   Mostly Cloudy